Location: Lecco
(45.8566°N, 9.3977°E)
Time: 11:30:14
(UTC+02:00)

Explorer 11/Cluster Stage 4 - Pass Details

Date: 21 August 2020
Orbit: 467 x 1258 km, 28.8° (Epoch: 24 September)

Event Time Altitude Azimuth Distance (km) Brightness Sun altitude
Rises 22:35:04 0° 246° (WSW) 3,650 10.3 -20.9°
Reaches altitude 10° 22:38:47 10° 225° (SW) 2,857 9.4 -21.3°
Enters shadow 22:42:39 16° 192° (SSW) 2,589 8.9 -21.8°
Maximum altitude 22:42:44 16° 191° (SSW) 2,591 - -21.8°
Drops below altitude 10° 22:46:58 10° 158° (SSE) 3,110 - -22.3°
Sets 22:51:19 0° 139° (SE) 4,154 - -22.8°
